Theta_e
318 318 319 318 319 320 320 321 321 321 321 323 323 324 324 324 324 324 324 324 324 325 326 326 326 326 325 326 326 326 322 312 308 306 306 308 311 320 322 323 323 323 322 315 315 309 304 306 305 309 305 304 311 306 309 307 306 307 298 296 293 294 293 295 294 295 296 294 297 297 298 297 295 299 301 305 301 301 302 302 303 303 301 302 303 304 305 305
318 319 319 320 320 321 321 322 322 322 323 323 323 324 325 325 325 324 324 324 325 326 326 325 325 325 325 326 326 325 317 310 305 309 306 314 322 321 321 321 321 320 319 313 307 305 303 303 305 306 303 302 307 305 305 306 305 302 297 297 293 294 295 298 297 297 297 297 299 299 298 297 297 299 300 296 296 298 297 299 302 301 301 302 302 303 303 303
319 319 319 320 320 321 322 321 322 322 323 323 324 325 324 324 324 324 324 326 326 326 326 326 325 325 324 325 324 323 314 306 306 303 308 322 321 321 321 321 321 321 314 308 309 306 303 303 304 303 302 300 302 305 304 304 301 303 298 294 294 297 295 298 299 298 300 300 298 297 297 297 299 300 301 295 294 297 295 295 298 298 299 300 301 303 302 302
319 320 320 319 321 320 321 322 322 323 323 324 324 324 323 324 324 325 325 325 326 326 326 326 325 324 322 324 323 321 317 308 298 303 309 321 320 321 320 322 322 319 316 316 312 306 307 306 305 304 305 301 305 302 300 303 302 301 298 294 295 295 294 296 298 298 299 301 298 297 298 296 300 302 299 298 294 294 296 299 298 298 299 301 302 302 302 301
319 319 320 319 320 320 321 322 322 323 324 324 324 324 324 324 324 325 325 325 325 327 326 327 325 322 322 322 320 318 311 301 300 307 311 319 320 322 322 321 321 315 312 309 308 306 306 304 304 305 308 299 306 304 298 301 300 302 295 295 296 296 294 297 297 297 297 299 299 297 295 295 302 302 298 297 293 292 296 300 302 302 303 302 302 303 303 301
318 319 320 320 320 321 321 322 323 323 323 323 324 324 324 324 324 324 325 326 326 326 326 327 326 321 321 321 317 317 308 291 306 305 319 319 319 321 321 320 321 318 316 310 307 305 304 303 302 302 303 301 298 297 299 299 304 297 295 296 296 297 295 297 298 296 296 298 299 297 298 301 298 298 298 297 296 298 304 305 306 307 308 306 305 305 303 302
318 319 319 320 321 321 322 321 322 323 323 323 323 323 323 324 324 325 325 325 326 325 327 326 325 319 319 313 321 308 302 300 305 308 317 320 319 319 320 319 319 320 317 311 307 304 303 301 301 308 303 302 300 299 300 300 307 302 293 295 295 298 296 297 296 296 296 296 298 298 303 296 298 293 300 296 298 300 302 303 305 307 308 308 306 306 304 306
319 319 320 320 320 320 321 321 321 322 322 323 323 323 324 325 325 325 326 326 326 327 326 325 325 322 318 321 315 307 301 300 305 310 314 318 312 311 313 316 316 315 308 304 303 302 304 301 300 310 302 301 304 302 304 301 302 299 295 298 296 298 297 297 296 296 297 297 297 297 295 295 296 296 297 296 298 300 301 302 302 303 304 305 304 304 305 304
319 320 320 320 320 320 320 321 321 321 321 322 324 325 325 325 324 324 324 325 325 326 326 325 323 322 320 315 306 303 298 305 309 310 310 309 308 309 312 307 310 306 305 307 310 303 302 307 305 305 300 302 302 304 303 300 297 299 297 298 296 296 297 297 297 298 296 297 297 294 293 295 296 298 294 296 298 300 301 301 302 302 301 301 303 303 302 302
319 320 320 319 319 319 320 321 321 321 323 323 324 324 325 325 324 323 324 325 324 324 325 324 323 319 315 312 313 300 301 309 310 310 310 309 309 309 308 308 307 306 305 304 306 305 302 301 302 304 304 302 305 300 302 301 297 302 300 300 297 296 297 297 297 296 297 296 297 293 293 294 297 295 290 298 299 300 299 299 300 300 299 300 301 303 303 302
319 320 319 319 319 320 321 321 321 322 322 323 323 325 325 325 323 323 324 325 324 325 325 324 322 315 313 314 305 296 307 308 310 310 310 309 308 307 306 307 308 307 306 305 304 305 306 305 307 306 312 302 305 299 301 299 304 302 300 298 297 295 297 296 296 296 296 294 296 295 293 295 296 296 292 296 300 300 299 299 299 299 299 299 300 300 303 303
319 319 319 319 320 320 321 321 321 321 322 324 324 324 325 324 323 323 324 324 325 324 323 324 317 309 312 305 300 299 308 309 312 310 311 310 307 307 309 308 308 308 307 303 304 305 306 309 312 312 302 306 297 300 299 302 302 302 301 296 297 298 294 295 294 295 296 294 296 297 293 291 292 291 296 298 299 299 299 298 298 298 299 299 299 299 300 301
319 318 318 319 319 320 320 321 322 322 323 323 324 324 323 322 322 322 324 322 323 321 322 322 320 316 318 303 302 308 310 310 311 310 310 310 311 309 309 308 308 308 308 305 305 310 314 309 310 305 309 307 303 296 301 303 302 302 299 296 296 294 292 296 296 296 294 296 296 298 282 289 292 295 296 299 299 299 298 297 297 298 298 299 299 299 300 300
318 318 319 319 319 320 320 321 322 322 322 324 323 322 321 322 320 321 322 322 319 320 322 322 317 316 316 302 306 309 310 313 310 309 308 310 309 308 309 309 308 308 309 307 308 311 312 309 308 307 310 304 299 305 300 301 303 295 299 297 286 286 286 295 295 296 293 296 295 297 281 287 292 295 298 299 299 298 296 296 297 298 299 299 299 299 299 300
318 318 318 320 320 320 320 321 322 322 322 322 322 323 321 318 320 321 320 320 323 322 319 320 325 318 308 307 309 311 314 310 307 307 309 307 306 306 306 308 307 307 307 307 308 309 311 316 313 306 300 306 304 302 296 296 295 296 289 286 288 285 289 293 296 295 291 294 296 296 284 287 292 295 299 300 299 298 296 297 297 298 298 299 299 299 299 300
317 318 319 320 319 319 320 320 320 321 321 321 321 321 320 319 321 320 317 320 320 315 322 324 328 311 307 300 304 313 310 305 304 308 309 309 307 304 306 306 307 308 307 306 309 310 311 308 304 302 302 304 301 298 294 293 292 294 288 283 284 286 286 292 294 296 295 297 296 294 285 289 291 295 298 300 299 297 296 297 297 298 298 298 298 298 298 298
317 318 319 319 319 320 320 320 320 320 320 320 319 319 320 321 320 321 320 319 324 324 315 316 310 314 300 307 310 304 302 306 310 307 307 310 308 306 306 305 305 305 306 306 307 310 310 303 304 305 307 298 297 295 287 286 286 287 290 285 288 284 285 283 295 295 298 295 291 293 288 289 292 295 297 298 298 297 296 296 297 298 297 298 298 298 298 298
318 318 318 318 319 320 320 321 320 319 314 315 317 321 319 318 319 320 319 323 328 327 318 321 313 311 301 306 298 300 306 304 305 305 306 309 310 307 305 303 304 304 304 303 305 303 307 300 302 296 298 299 296 292 285 282 283 285 286 285 284 286 286 286 287 293 295 294 290 290 290 291 293 295 297 298 299 298 297 297 297 297 297 297 298 298 298 298
318 318 318 318 318 319 320 320 321 317 315 317 318 320 319 319 327 320 312 313 319 312 308 303 304 297 294 300 304 304 304 307 305 305 305 306 307 306 306 306 304 302 303 303 303 303 304 302 303 296 289 289 289 291 285 288 291 289 290 285 286 283 284 285 293 295 296 292 289 291 288 291 293 295 297 298 299 297 297 298 298 298 298 298 298 297 298 298
317 318 317 318 318 319 319 319 320 319 317 320 329 331 323 314 317 311 310 308 304 306 307 307 311 311 304 301 301 305 308 308 303 305 305 307 305 305 304 304 311 308 304 298 303 302 303 296 288 287 286 293 294 294 294 293 294 292 290 286 286 286 288 293 295 295 295 290 288 290 290 291 292 293 295 296 296 297 297 297 298 297 297 298 297 297 298 298
317 317 317 317 318 318 319 319 319 318 313 322 325 319 307 310 306 298 306 307 310 310 311 310 310 303 300 302 303 302 299 302 304 303 303 307 306 305 305 306 305 302 299 302 301 305 301 294 287 292 294 292 292 295 295 294 295 293 288 285 285 288 285 293 295 295 296 289 286 289 289 290 291 293 295 296 296 295 296 296 296 296 297 297 297 298 298 298
316 317 316 317 318 319 318 318 318 318 318 318 321 315 313 314 317 318 316 299 310 311 312 310 309 304 303 303 305 303 301 299 302 302 304 305 304 300 305 305 301 296 301 302 301 299 294 288 292 294 294 294 294 296 295 293 290 291 286 285 284 285 291 294 293 295 295 290 287 290 288 289 291 293 294 295 295 295 296 296 296 296 295 296 298 298 298 297
316 316 317 316 318 319 319 319 318 317 320 319 320 311 314 316 316 318 317 308 303 310 311 307 305 303 301 306 304 306 300 296 298 300 299 303 306 301 304 298 299 301 303 300 294 291 292 293 295 297 295 294 296 295 294 293 292 287 285 284 284 287 284 283 290 292 295 289 287 289 286 289 292 293 293 295 295 295 299 301 300 299 296 296 297 298 298 298
316 316 316 317 318 317 319 317 315 321 326 324 322 317 317 313 314 318 318 306 303 306 310 308 309 304 303 299 303 302 300 302 300 296 302 301 299 303 303 298 297 299 295 299 296 295 292 295 294 295 294 294 293 294 293 288 285 288 290 285 284 285 286 285 286 290 290 290 290 287 286 286 290 290 291 294 295 296 297 296 296 295 299 298 298 297 298 297
315 315 316 316 317 318 317 318 319 320 325 328 316 319 313 314 315 319 313 306 306 305 311 311 312 302 300 304 308 304 304 305 301 302 302 300 298 304 302 303 301 295 297 298 297 297 296 295 295 294 293 295 293 290 292 290 284 285 287 287 287 287 285 286 288 287 284 282 286 287 279 278 286 288 290 296 294 294 295 295 296 297 297 296 295 296 297 299
314 314 315 316 317 317 318 312 320 323 319 317 314 312 315 314 318 316 312 298 288 297 312 300 305 300 302 303 303 307 305 302 303 300 306 300 303 303 303 301 300 293 298 296 293 291 294 293 295 293 294 293 293 290 292 289 284 282 283 288 288 286 285 285 285 283 279 277 284 289 279 276 284 287 290 290 290 290 293 292 292 293 295 295 296 297 296 297
314 314 315 316 317 316 315 314 322 325 314 319 312 313 316 318 318 321 308 293 287 296 299 309 306 305 311 304 303 307 291 294 303 306 303 306 304 309 301 296 302 301 300 297 293 289 297 295 293 294 293 292 289 288 291 288 283 283 285 287 285 284 283 284 283 282 282 286 288 289 285 277 279 285 290 289 288 288 289 290 291 293 295 295 296 296 295 296
314 315 315 315 317 316 318 318 321 321 315 311 310 312 313 316 319 322 300 283 279 303 297 301 307 309 309 307 305 298 297 300 299 302 303 307 304 306 305 295 294 292 299 294 283 291 296 293 292 292 292 290 289 290 291 292 282 285 285 288 285 286 286 286 282 282 283 281 280 284 288 280 278 285 287 286 286 286 288 289 290 293 294 294 293 294 294 295
314 314 315 316 314 313 318 323 322 321 309 309 309 311 317 316 318 306 291 281 292 298 311 303 313 305 303 307 306 305 304 304 297 301 308 304 307 303 297 300 299 294 298 297 288 288 294 292 293 294 289 286 291 290 289 291 286 290 289 289 288 288 287 286 280 281 280 279 276 281 286 277 278 282 286 286 284 285 285 288 290 293 293 292 293 293 295 294
315 315 315 315 314 318 324 320 308 310 309 310 312 312 315 317 310 294 287 278 300 289 304 303 303 294 300 299 301 300 299 301 302 303 307 304 305 306 301 300 299 295 290 298 295 293 292 297 295 293 291 293 288 290 290 290 291 292 290 288 287 288 285 283 282 281 278 275 277 282 285 282 273 280 283 283 282 284 285 288 290 292 293 294 294 294 294 295
314 313 312 311 322 320 314 317 310 309 311 312 313 314 317 312 293 288 278 284 302 300 305 300 297 303 296 293 291 297 300 300 299 299 297 306 297 298 298 295 300 293 287 288 286 293 294 293 291 292 296 295 293 290 294 292 290 290 286 285 285 282 283 281 280 281 274 274 278 279 282 284 274 277 284 287 285 285 287 285 288 289 290 292 292 293 294 294
312 313 314 312 312 316 318 317 308 311 312 312 314 318 308 290 292 285 283 306 290 290 290 288 297 294 295 294 294 291 288 297 297 296 290 291 289 289 289 284 284 282 281 282 282 292 289 288 291 294 292 292 292 288 290 290 291 290 287 285 279 277 278 273 275 274 275 275 277 280 282 278 277 281 286 287 286 286 287 289 290 291 291 291 292 293 294 294
311 310 311 312 313 310 308 307 308 311 311 313 318 312 294 290 279 286 286 288 286 292 290 293 292 294 291 295 290 291 295 288 295 298 294 295 291 287 292 290 289 287 279 284 283 282 284 287 292 292 292 294 291 284 283 282 286 286 283 280 277 273 272 270 273 275 275 279 279 279 280 277 279 284 287 286 288 290 288 290 291 292 291 291 292 293 294 294
312 311 308 309 307 308 308 309 310 311 314 317 313 306 292 285 281 289 285 287 288 295 295 294 292 293 295 287 289 290 285 292 291 290 296 291 290 286 290 290 290 286 284 284 279 279 278 279 287 288 285 290 290 289 286 283 283 282 288 284 280 278 273 269 272 270 273 276 281 282 276 274 277 281 287 288 290 291 290 291 292 289 289 290 292 292 291 292
313 313 313 315 314 312 311 309 312 310 314 317 310 295 285 283 286 284 286 287 291 292 293 294 292 293 292 290 292 291 287 284 293 289 287 287 284 285 284 285 289 289 285 281 282 281 284 281 287 290 291 289 289 290 290 286 283 285 284 286 282 279 281 274 276 275 273 276 276 276 276 279 281 289 290 290 289 289 290 290 289 290 289 288 290 291 291 292
316 318 317 312 312 314 313 311 310 313 316 312 298 286 284 284 284 288 287 293 291 287 287 292 293 289 286 288 288 285 293 284 286 286 285 286 287 285 289 286 285 288 282 280 281 278 281 279 288 292 289 286 286 289 288 289 277 283 284 281 282 283 280 276 279 282 280 277 274 279 279 283 287 288 288 289 289 289 288 289 288 288 289 288 289 290 291 292
317 322 307 315 311 314 313 313 310 313 317 308 292 285 287 289 289 289 292 288 290 288 287 284 284 285 283 284 285 283 284 288 285 285 284 287 285 287 289 288 290 288 286 281 282 282 277 279 287 288 288 288 289 287 290 290 289 283 280 283 287 287 283 277 273 275 274 272 274 278 275 278 277 275 286 287 286 288 287 288 288 289 288 288 289 291 292 293
318 315 310 309 311 316 315 312 313 316 313 295 286 289 291 289 291 290 290 289 289 289 286 286 285 290 283 283 283 281 284 283 285 283 285 286 283 288 288 286 290 288 286 285 281 283 284 277 284 285 287 290 289 289 288 290 289 285 282 287 280 275 274 278 277 269 269 268 271 275 277 278 278 278 281 283 284 286 287 288 287 287 288 288 290 291 292 293
319 319 306 311 315 317 315 314 315 316 311 291 287 288 291 290 290 289 290 289 289 287 283 284 285 285 285 283 281 282 281 282 283 284 284 285 282 289 284 286 287 288 288 289 284 284 286 277 281 285 286 288 286 285 280 282 288 288 287 285 285 280 278 275 277 274 275 270 269 272 275 275 280 281 282 284 287 286 287 287 286 287 288 289 291 292 292 292
317 314 304 319 314 318 315 316 316 301 295 288 286 285 293 290 291 290 288 289 288 288 283 284 289 284 285 283 280 282 283 282 283 283 285 287 285 288 285 289 283 287 289 289 286 288 282 285 274 282 288 287 281 283 280 281 279 280 282 281 283 281 284 281 279 275 274 271 271 271 271 276 283 285 286 286 288 286 287 287 287 287 289 290 291 292 292 291
312 310 307 319 313 318 318 311 297 292 289 288 291 290 290 290 292 293 294 291 292 294 286 286 285 285 286 284 283 287 283 283 285 283 285 284 282 281 283 281 285 284 285 285 285 284 281 281 277 281 281 281 281 283 283 283 283 281 280 278 280 278 275 272 272 280 274 274 271 270 270 277 284 289 288 288 288 288 289 287 287 287 289 290 291 292 291 290
312 295 302 315 317 316 318 294 291 292 290 287 287 291 292 293 292 291 290 290 289 287 290 287 288 289 287 288 288 286 285 283 286 284 286 282 288 286 286 285 286 284 281 281 282 285 282 281 278 277 280 283 283 283 284 284 285 283 283 280 282 281 280 276 270 273 276 275 275 274 270 275 285 287 287 287 289 289 289 287 287 288 290 291 292 291 291 290
302 299 314 315 317 314 302 291 292 290 287 289 293 292 291 291 290 288 289 292 290 293 290 291 289 289 290 288 287 286 287 283 285 283 286 285 284 282 286 287 286 286 283 282 287 283 287 279 277 280 283 285 280 283 281 282 284 283 282 281 282 279 278 276 275 276 274 274 272 272 270 277 285 287 286 289 289 289 290 287 287 288 290 291 291 291 291 290
301 299 307 318 318 312 305 288 287 285 287 292 293 289 293 293 291 290 290 291 288 284 288 290 292 291 289 290 286 286 288 280 287 284 284 283 284 284 286 285 285 283 284 281 279 284 278 281 279 276 276 278 278 280 280 281 281 282 280 281 281 279 276 277 278 276 272 273 275 272 268 275 285 287 289 289 289 289 289 288 288 288 290 290 291 291 290 290
301 307 302 305 306 305 294 295 289 288 286 287 287 287 290 291 292 291 291 290 291 287 286 288 289 289 289 289 288 288 288 284 282 282 280 281 281 284 285 285 282 283 285 284 284 283 280 280 279 273 270 270 269 270 273 277 280 282 282 282 279 278 277 275 273 275 271 274 276 272 274 281 286 288 288 288 288 288 289 288 288 288 289 290 290 290 291 290
300 289 299 298 302 299 295 296 294 289 287 286 285 286 289 287 292 292 292 291 288 290 288 290 290 284 288 289 288 287 287 286 282 281 280 281 282 285 284 285 285 284 284 284 282 282 280 281 281 278 275 275 277 279 283 283 281 278 280 281 280 278 278 277 276 273 272 274 274 277 278 279 281 284 285 286 287 286 287 287 288 289 290 290 289 290 290 290
298 292 291 290 300 295 291 294 293 293 289 293 284 286 285 288 290 293 295 288 290 289 291 291 291 287 287 288 286 286 287 286 284 279 279 277 280 280 284 284 284 285 283 282 282 278 280 278 280 281 279 280 282 282 284 283 279 281 279 280 281 278 276 276 275 274 277 273 272 278 279 276 280 283 284 285 286 287 287 287 288 289 290 290 289 289 290 290
292 291 294 294 296 289 289 287 292 292 294 291 284 290 287 288 288 284 291 289 290 288 289 290 290 289 289 287 286 282 285 285 284 279 278 278 279 281 281 284 283 284 282 282 281 279 278 276 276 274 275 280 282 282 283 282 281 281 281 281 280 281 277 275 275 279 279 274 273 279 280 278 281 283 285 286 287 287 286 287 289 290 290 290 289 289 288 288
296 292 294 295 290 286 289 289 291 294 292 289 288 290 287 288 286 288 287 287 291 288 290 283 288 289 289 289 287 283 284 277 279 281 278 278 279 280 281 281 283 282 281 280 280 280 278 278 279 276 277 280 280 281 282 281 281 281 281 281 282 281 280 279 279 280 279 278 280 280 280 280 283 284 286 287 288 287 288 289 290 289 288 288 288 288 288 288
291 292 288 295 291 286 285 285 291 294 288 291 286 286 290 291 288 291 290 289 285 288 291 288 288 288 289 288 287 283 285 284 279 279 280 280 280 282 280 279 279 281 281 279 280 280 279 277 280 278 276 279 281 282 281 281 281 281 282 282 282 282 281 282 281 282 281 280 281 281 280 280 285 288 288 289 287 288 289 288 289 288 287 287 288 287 287 286
295 296 299 292 288 286 287 288 290 290 287 288 288 289 291 291 290 290 290 291 290 288 288 287 288 288 290 288 288 287 287 284 283 283 284 283 280 283 280 280 281 279 281 281 280 279 276 276 278 277 277 277 280 280 281 282 281 280 280 281 281 280 277 279 278 280 278 278 280 279 278 279 285 288 288 288 287 287 287 287 288 287 287 288 286 286 285 285
297 295 298 300 287 289 288 289 289 291 284 288 289 290 290 290 290 290 287 292 290 291 290 289 288 287 287 288 285 287 286 284 285 285 285 285 284 284 284 284 283 281 279 280 278 278 278 276 276 277 275 276 280 281 280 280 279 277 275 281 282 282 282 282 282 282 282 282 278 277 279 284 286 288 286 286 287 287 287 288 286 287 287 286 284 284 285 285
Wind_Speed
7 7 7 7 8 8 8 8 8 8 9 9 10 10 10 10 10 10 10 10 10 10 10 9 9 9 9 13 8 7 9 5 7 8 10 3 6 11 10 9 9 10 9 7 9 7 7 6 6 1 4 4 2 2 1 1 1 1 2 2 5 3 3 1 2 2 4 6 7 8 9 7 7 7 4 2 4 4 4 4 4 6 7 7 4 4 7 8
6 6 6 7 7 7 8 8 8 8 8 9 9 10 10 10 10 10 10 10 10 10 10 9 8 8 8 11 8 7 5 6 3 11 6 4 8 6 5 6 7 8 8 5 6 8 9 8 8 4 5 4 3 1 1 1 0 2 3 3 2 2 1 4 4 5 1 4 9 6 9 8 6 9 6 4 5 7 6 7 5 8 10 7 5 5 8 9
6 6 6 6 7 7 7 8 8 8 8 9 9 10 10 10 9 9 10 10 10 9 8 8 7 5 6 7 6 6 4 7 5 10 5 2 8 8 7 7 6 7 3 5 6 8 8 9 9 7 5 5 1 1 3 1 2 1 0 3 2 2 3 7 7 3 4 4 8 6 7 6 4 6 6 6 5 7 12 8 8 11 11 11 9 7 8 9
5 6 6 6 6 7 7 8 8 8 8 8 8 9 10 9 9 9 9 9 9 9 7 6 6 3 4 6 3 4 4 8 3 7 10 13 12 9 8 8 6 6 4 6 7 7 6 7 8 6 3 5 1 2 2 2 1 2 2 2 2 1 1 4 6 5 3 5 5 6 4 6 4 2 4 3 5 10 10 11 10 10 12 11 9 10 10 10
5 5 6 6 6 7 8 8 8 8 8 8 8 9 9 9 9 9 9 8 8 7 7 6 6 3 3 4 6 3 2 4 4 7 10 14 11 10 7 5 6 3 5 7 9 9 7 8 6 4 1 3 2 1 2 1 2 1 1 2 4 5 2 3 4 5 5 5 1 4 6 6 2 2 4 5 9 9 6 8 11 12 9 8 11 11 10 12
5 5 6 6 7 7 8 8 9 9 8 8 8 9 9 9 9 9 8 7 7 6 5 5 5 4 4 1 2 2 3 2 3 9 11 12 11 10 7 6 5 3 4 7 6 7 6 6 6 3 2 2 3 3 1 0 2 1 1 0 3 3 2 2 5 4 5 2 1 3 4 1 4 3 5 7 13 6 4 4 1 1 2 5 5 4 6 11
5 6 6 6 7 7 8 9 9 8 7 8 8 9 9 9 8 8 8 7 6 6 5 3 3 2 2 2 2 2 2 4 7 9 12 10 12 8 6 6 4 2 3 6 8 6 5 7 6 2 2 2 1 1 4 4 0 1 2 1 3 5 5 4 5 4 3 4 1 2 2 4 3 7 3 10 11 10 11 11 7 4 2 2 4 4 5 4
5 6 6 6 7 7 8 8 8 8 8 8 9 9 9 8 8 7 6 6 6 6 5 5 5 6 2 3 2 2 6 5 10 9 11 11 11 9 6 3 2 3 5 5 6 7 5 6 6 2 1 2 1 2 3 5 5 1 1 1 2 0 1 2 1 1 1 2 4 3 2 5 5 7 5 15 11 11 12 11 11 10 7 5 5 6 5 6
5 5 6 6 6 7 8 8 8 8 8 8 9 9 9 8 8 6 5 6 6 6 5 5 5 2 2 1 2 4 4 6 8 10 11 11 9 7 4 4 3 6 4 2 2 4 5 2 2 2 1 1 3 1 3 4 1 4 2 0 1 2 2 1 1 0 2 1 1 3 6 7 7 9 15 19 13 12 10 9 10 9 8 9 9 9 9 9
5 5 5 6 6 7 7 7 8 8 8 9 9 9 8 7 8 7 5 4 5 6 4 3 3 3 1 3 2 1 3 6 6 8 9 8 7 8 6 5 4 6 5 3 3 7 4 2 4 3 5 4 2 2 3 3 0 1 1 2 1 1 0 2 4 2 1 4 0 4 7 7 5 3 10 7 11 12 12 12 11 10 11 11 9 9 9 10
5 5 5 5 5 6 7 7 8 8 8 9 9 8 7 6 8 6 4 4 5 5 3 1 4 2 4 6 3 3 2 6 4 6 8 9 7 7 8 7 5 6 3 2 5 6 7 6 6 2 1 2 2 3 3 0 1 1 2 2 1 3 2 2 4 1 1 3 3 4 9 8 9 4 14 18 5 3 5 9 9 10 11 10 10 10 9 10
4 4 4 5 5 6 7 8 8 8 8 8 8 8 7 6 7 7 4 4 5 4 5 4 4 2 5 10 8 3 4 4 4 5 5 9 5 6 5 6 6 8 5 4 4 5 4 4 3 2 1 2 1 1 1 2 3 2 2 3 3 3 4 6 6 5 3 2 2 2 10 12 9 8 21 20 12 7 7 7 6 6 7 7 7 8 7 9
4 3 4 5 5 6 7 7 7 7 7 7 7 7 5 5 6 6 6 7 4 5 5 5 4 4 3 3 3 2 2 4 4 5 8 8 3 5 4 5 6 7 8 6 4 3 1 2 1 4 3 1 2 0 2 2 1 1 3 3 2 3 4 8 4 3 4 1 1 1 7 2 3 15 17 15 8 7 9 9 7 6 7 7 7 8 8 8
3 4 4 5 6 7 7 7 6 6 6 6 6 8 8 7 7 7 5 4 9 8 6 6 3 4 2 3 2 2 3 2 6 6 9 10 11 4 5 5 5 4 3 5 3 2 3 4 9 4 1 1 2 1 2 1 1 2 1 1 2 3 2 7 5 6 3 3 4 3 3 11 11 13 8 11 5 8 7 7 8 8 8 8 7 8 8 9
4 5 6 6 6 7 6 6 6 6 7 8 7 6 6 5 5 5 4 5 7 5 7 7 3 3 2 1 2 2 1 2 3 9 4 10 10 8 7 5 4 3 2 2 1 0 1 1 2 1 2 0 4 1 1 2 3 2 2 1 1 2 1 6 5 7 5 2 4 2 5 12 10 6 4 3 5 7 7 6 7 8 9 9 9 9 9 9
5 5 6 7 7 7 6 6 6 7 6 4 3 1 2 4 5 4 4 4 5 4 1 1 1 4 3 2 3 0 3 6 7 6 4 4 6 7 9 8 5 1 2 1 1 1 2 4 2 1 2 1 3 2 3 1 2 1 1 4 4 2 2 1 6 4 5 2 3 5 7 10 12 4 1 1 4 5 7 9 9 10 11 11 9 7 6 6
4 5 6 7 7 7 7 7 7 6 5 1 1 2 4 6 6 7 7 7 1 3 3 2 5 4 2 1 3 3 6 5 2 5 6 2 3 6 8 9 2 3 3 5 4 3 3 2 0 2 2 2 1 2 3 2 2 0 0 3 5 2 3 3 1 4 1 2 3 7 6 15 15 13 13 10 6 7 10 12 12 12 10 10 9 8 7 7
4 5 6 7 7 7 6 6 6 5 2 1 2 1 3 5 7 7 5 3 1 1 2 2 3 2 3 0 4 7 5 6 5 6 7 3 2 5 5 5 3 5 6 4 4 4 1 2 2 1 2 2 6 5 3 2 0 4 5 4 4 6 6 6 6 1 1 3 5 5 10 20 18 16 15 15 14 15 15 12 11 11 10 10 9 9 9 7
5 5 6 7 7 7 6 6 6 4 2 4 3 3 6 5 5 4 6 4 1 1 1 4 5 2 1 5 2 4 4 2 5 5 7 7 4 5 6 7 8 8 2 2 2 2 2 2 2 2 2 5 5 4 1 2 4 4 6 4 5 5 6 6 4 1 1 3 6 8 10 17 19 15 15 13 10 11 13 13 12 12 12 10 9 8 7 6
6 6 6 6 7 6 6 6 5 5 4 4 1 1 1 1 1 0 5 8 7 2 2 3 1 3 2 5 6 7 7 3 3 4 6 4 6 6 8 6 2 2 2 1 3 2 0 1 3 1 1 3 3 3 3 3 3 5 4 4 6 6 9 8 2 1 1 2 9 11 10 15 19 17 16 14 8 10 13 13 11 9 7 9 7 7 7 7
5 6 6 6 6 6 6 7 6 6 1 2 3 1 2 2 1 2 0 2 1 2 1 1 1 3 3 3 5 7 6 1 5 7 7 8 6 2 0 2 3 2 2 1 1 0 0 0 2 1 2 3 3 1 2 3 3 4 4 4 7 5 6 5 2 1 1 1 6 6 13 18 17 18 18 15 10 13 12 10 10 9 9 6 6 7 8 7
5 5 5 5 5 5 6 6 6 7 4 2 3 1 2 0 0 1 1 2 1 1 3 2 4 2 3 2 1 2 3 3 3 11 9 13 2 2 4 3 4 3 2 2 2 1 1 2 0 2 1 1 2 2 2 2 4 3 4 4 5 7 4 2 3 1 1 1 11 8 11 16 17 21 20 16 10 9 8 6 5 5 5 4 4 6 7 6
5 5 6 6 5 5 5 6 6 5 4 1 1 3 2 1 1 0 1 2 2 1 1 3 4 4 5 1 4 3 2 6 2 9 12 11 3 5 3 4 3 3 2 5 4 6 2 1 1 1 1 3 2 4 2 4 4 4 5 3 5 3 6 5 1 2 2 1 10 12 12 15 18 16 16 15 7 2 1 3 3 3 4 5 6 7 5 8
4 5 6 6 6 5 5 5 5 4 1 2 2 2 1 3 3 2 1 1 2 1 1 1 2 3 2 4 4 6 3 2 2 9 9 8 4 4 2 4 4 2 3 4 4 4 0 1 1 0 2 2 2 4 4 3 5 4 4 5 4 4 4 2 8 10 9 10 6 8 10 8 7 3 7 4 3 3 1 2 2 3 1 2 4 6 6 3
5 5 5 6 5 5 4 5 0 2 1 1 2 1 3 2 2 3 0 1 1 1 1 1 2 2 3 2 2 2 2 2 3 2 4 6 7 3 1 1 1 2 2 4 4 3 2 1 1 2 3 2 3 4 2 2 4 4 1 2 0 3 5 8 8 11 8 4 2 1 8 5 3 9 10 1 3 1 0 1 4 3 1 1 3 5 4 4
5 4 4 4 5 5 5 1 2 1 1 1 2 3 2 2 2 3 1 1 1 3 1 3 3 2 2 2 2 2 1 1 2 3 1 2 2 0 2 0 1 2 3 2 1 0 0 2 1 2 2 3 3 4 0 3 3 4 3 0 1 3 5 7 8 5 6 5 1 2 1 9 5 6 5 4 4 8 5 7 9 6 7 6 9 13 12 12
3 4 3 3 4 3 1 1 2 1 1 1 3 6 3 2 2 2 1 0 2 2 3 0 1 1 0 3 5 3 2 3 1 2 1 1 1 1 1 2 1 1 1 0 0 1 1 2 2 2 3 2 4 2 2 2 2 5 1 1 2 5 7 8 4 2 7 5 11 8 5 2 7 10 1 1 4 7 6 6 8 9 11 11 10 10 9 7
2 2 1 1 2 1 2 1 0 1 1 3 5 4 4 2 2 1 0 1 2 2 2 3 1 3 2 4 5 4 3 5 2 0 2 2 1 1 1 1 1 4 2 1 5 1 1 1 1 1 1 2 2 1 2 2 1 4 1 3 7 9 11 5 3 4 5 5 10 1 4 1 3 5 1 2 2 5 10 9 9 8 8 9 9 8 8 7
2 2 2 3 4 7 4 2 2 1 3 4 4 5 2 2 1 1 1 2 4 2 5 2 1 1 5 4 2 2 1 2 1 3 1 1 1 1 2 2 2 1 1 1 1 1 1 2 1 1 1 3 2 1 1 1 3 1 4 7 10 9 6 3 1 3 4 1 6 2 3 2 6 5 8 2 7 8 6 6 7 8 6 6 6 5 7 6
4 4 4 3 2 1 1 3 4 2 4 4 4 4 4 1 1 0 0 2 1 1 2 3 2 6 6 4 1 5 4 2 0 3 2 2 0 1 1 1 1 2 1 0 2 2 1 2 1 0 2 2 2 5 3 4 4 5 8 6 7 8 3 3 2 1 2 1 1 6 5 3 5 5 5 6 4 1 6 5 6 7 9 6 5 5 5 5
7 4 2 2 1 1 2 1 2 2 3 3 4 3 1 1 0 1 3 1 2 1 2 2 2 2 4 6 3 6 2 3 4 5 2 2 6 6 5 1 1 1 0 1 2 1 1 0 0 1 2 3 2 5 2 0 1 2 3 4 8 4 4 1 0 1 2 2 1 5 3 4 6 5 6 6 2 3 6 5 5 5 4 4 5 5 5 5
12 13 10 6 0 2 1 1 1 2 3 3 3 1 1 1 1 6 1 1 1 4 2 4 1 2 5 0 1 6 4 4 2 3 4 3 6 10 9 5 4 5 3 7 4 2 2 1 1 3 2 3 2 4 0 0 0 1 6 5 6 6 6 3 2 4 3 4 2 0 4 5 3 5 10 5 5 5 3 3 2 0 1 2 3 4 5 5
15 15 15 8 2 5 2 1 2 3 3 3 1 2 1 0 4 3 1 4 0 0 2 3 5 5 5 3 4 5 2 2 4 0 1 1 2 3 3 9 5 1 2 6 6 6 3 0 2 2 2 2 2 5 7 4 2 8 4 4 4 4 4 5 4 3 4 2 3 2 3 3 5 6 1 5 4 5 5 4 2 0 1 5 5 5 5 5
8 12 10 3 8 4 2 1 2 3 2 1 1 1 1 6 0 2 1 2 1 0 4 2 4 5 1 3 2 4 3 1 3 4 2 1 4 3 2 7 9 7 1 4 3 4 5 4 2 2 4 1 2 3 1 3 5 4 3 2 1 1 1 4 3 5 8 8 13 2 2 2 9 4 3 5 5 4 4 4 1 7 6 6 5 4 6 7
12 13 9 4 4 4 2 0 2 3 2 1 2 0 5 2 1 2 1 3 2 3 2 2 3 2 0 1 1 1 2 2 2 3 5 5 4 2 4 4 7 4 3 2 1 1 3 5 2 2 0 1 3 1 1 2 3 2 2 0 1 2 1 3 4 5 4 7 7 3 2 4 5 9 4 3 4 4 1 6 7 7 5 5 5 6 7 8
3 3 3 4 3 2 2 1 2 3 2 2 3 9 4 1 0 3 1 1 2 3 8 7 0 3 4 0 1 2 2 0 3 3 1 3 1 3 1 3 4 6 4 3 4 3 4 2 5 5 4 2 2 1 0 1 2 4 3 2 2 4 4 2 4 6 5 3 6 2 5 8 6 7 3 8 11 11 7 6 5 4 5 5 5 6 7 9
2 1 5 2 3 3 2 2 1 1 1 2 5 4 0 2 1 2 3 2 1 2 2 2 3 3 4 3 4 7 4 1 2 2 2 1 2 4 2 1 2 3 3 2 4 2 1 11 11 3 2 0 0 1 1 2 0 2 1 2 7 2 2 2 2 4 3 4 6 5 8 11 5 6 3 10 11 9 6 7 5 4 5 6 6 10 10 11
1 2 4 4 3 1 1 0 1 1 1 9 7 6 1 1 1 1 1 3 1 2 2 3 0 2 4 3 4 6 9 3 10 5 1 4 1 2 2 2 2 4 1 2 1 2 2 6 1 1 2 1 2 1 0 1 1 1 1 3 3 3 3 2 1 3 4 5 4 6 8 11 5 6 4 8 10 10 9 10 5 6 6 6 8 10 11 10
1 1 3 3 3 2 1 1 1 2 0 8 2 3 2 2 1 1 2 2 2 1 2 1 0 1 1 3 2 0 4 3 5 3 3 3 3 5 2 3 1 0 2 3 1 4 2 1 4 0 3 0 1 1 3 3 1 1 4 2 2 2 4 3 0 3 0 5 3 5 7 11 5 4 5 10 12 7 10 10 5 6 7 8 9 10 11 10
0 1 3 1 4 2 1 1 2 8 7 7 2 2 1 2 1 0 1 1 1 2 2 1 2 2 3 0 1 2 2 1 1 3 3 2 1 3 3 6 1 6 5 1 1 1 3 1 4 4 6 5 3 1 1 1 3 1 1 1 0 1 1 2 1 2 2 2 3 5 10 9 12 4 8 12 11 6 9 8 4 4 6 8 9 10 10 8
0 2 0 1 5 3 2 4 11 7 6 2 5 3 2 1 1 1 1 2 1 1 0 1 2 3 1 3 1 0 2 3 2 2 2 2 4 3 4 4 5 4 6 0 1 3 1 2 4 9 10 6 5 2 2 3 1 2 1 3 2 1 4 4 7 1 1 0 3 2 11 12 18 7 8 9 6 9 10 5 5 5 8 9 10 10 10 6
1 4 2 4 3 3 2 10 4 3 3 4 1 2 1 2 1 1 0 0 1 0 1 0 0 1 3 1 0 2 3 3 2 2 1 3 2 3 1 3 3 2 3 2 1 1 1 2 2 6 4 11 5 5 4 3 1 3 1 2 2 0 1 1 4 5 4 3 1 3 4 14 7 2 5 4 7 9 9 5 5 5 8 9 9 9 8 5
4 4 2 4 3 1 7 8 3 4 4 2 2 1 0 0 1 3 2 2 1 1 1 2 1 1 2 1 3 2 3 1 2 1 2 2 1 1 3 4 4 4 2 3 1 1 1 1 3 6 7 1 2 2 4 1 1 3 1 2 0 2 2 3 5 4 4 5 2 3 4 12 9 3 4 7 8 8 9 5 4 5 7 8 9 10 9 7
3 3 3 1 1 2 4 5 3 3 3 1 1 2 2 2 3 3 2 2 2 3 1 2 1 3 1 1 1 2 4 2 1 2 2 1 1 2 2 3 5 2 3 1 1 4 3 0 3 5 6 7 3 3 2 1 1 1 3 2 3 2 3 0 0 1 1 4 7 2 8 11 8 4 8 9 12 14 12 6 3 6 7 8 8 8 7 6
3 2 4 5 9 6 6 1 5 5 2 2 2 3 1 1 2 1 0 2 1 0 0 2 1 3 1 1 1 1 1 1 2 1 1 1 0 0 1 2 3 1 3 2 2 3 1 3 1 2 3 7 8 8 9 12 12 11 5 2 1 4 5 1 2 1 3 4 3 3 8 15 15 13 13 12 13 15 13 6 3 4 6 7 7 9 10 7
2 4 4 6 8 7 6 3 4 5 4 2 4 2 1 2 0 2 2 0 0 1 0 2 1 1 2 3 2 1 1 0 1 2 4 4 1 1 1 1 0 1 1 2 3 1 1 3 2 3 3 6 7 7 8 4 8 7 16 13 9 2 5 4 2 2 6 6 7 12 13 16 18 16 13 15 15 15 14 7 7 9 9 8 6 8 10 9
1 4 1 1 1 8 5 5 3 3 1 1 2 1 6 2 0 0 3 1 0 1 1 1 3 3 3 3 3 2 4 6 1 2 1 4 1 1 2 1 2 2 2 1 2 1 1 3 6 8 8 11 8 10 14 9 10 16 14 16 12 4 7 6 7 9 4 3 10 9 8 6 14 16 16 16 17 15 10 6 8 9 10 11 9 11 15 13
5 1 1 1 2 1 3 5 5 5 4 3 2 1 2 2 3 2 1 1 0 0 1 1 4 4 3 1 2 1 6 5 1 2 4 1 3 1 1 1 1 4 3 0 2 1 0 2 4 4 8 9 9 13 16 12 9 12 15 15 14 9 7 10 12 16 6 5 13 16 14 13 18 17 17 17 17 12 6 8 9 9 10 10 11 16 17 14
3 3 2 1 4 1 1 1 2 4 7 4 2 3 2 3 3 0 0 3 0 2 4 2 4 6 4 2 1 1 4 5 4 1 2 4 4 5 3 0 1 3 2 2 1 1 0 4 3 4 7 12 11 13 13 11 9 12 14 14 12 11 12 12 15 14 11 13 17 17 16 19 21 18 17 19 10 5 8 8 8 9 12 11 16 19 18 11
2 3 2 3 5 4 0 0 1 3 6 3 3 3 1 2 2 1 1 2 2 3 4 2 6 6 4 1 1 1 0 2 3 4 2 2 6 1 2 1 2 1 2 0 0 1 2 4 6 5 6 12 10 8 6 7 7 14 20 14 12 12 12 12 9 11 10 12 16 16 17 19 17 15 15 10 4 7 9 11 12 11 10 16 20 19 13 12
2 1 3 8 5 3 1 1 2 3 3 6 3 1 0 3 2 1 2 3 3 2 3 3 4 6 1 1 0 0 3 3 4 11 7 2 4 1 1 1 1 4 3 0 1 0 1 4 5 3 7 11 6 4 10 11 12 15 15 14 12 10 8 6 5 5 4 10 12 10 10 13 13 12 12 9 7 9 12 13 12 10 16 19 16 16 16 16
2 0 1 3 6 1 2 0 1 1 3 0 1 1 1 1 0 0 1 2 3 3 0 1 3 2 3 0 2 4 2 2 6 5 3 4 4 6 4 4 3 1 3 1 1 1 1 1 4 4 7 10 9 9 13 15 10 8 4 3 5 8 8 8 9 8 9 7 7 9 13 15 17 14 12 8 12 14 15 15 10 16 17 15 16 15 15 16
Wind_Direction
313 312 312 312 314 317 318 319 320 322 319 318 315 315 312 310 311 313 311 312 310 312 318 316 315 310 308 297 332 1 333 310 314 54 65 94 252 286 291 292 306 316 321 310 297 266 294 289 264 213 269 261 127 255 148 205 20 263 235 225 256 293 113 25 319 89 118 140 135 177 168 174 190 163 199 138 260 236 271 258 243 243 228 223 249 138 132 127
301 303 304 312 312 314 316 315 314 317 319 314 315 310 308 309 309 309 310 312 315 319 322 321 311 307 306 298 344 340 312 295 306 74 78 261 255 293 307 311 323 332 305 289 312 325 304 301 329 329 277 262 124 91 194 124 305 273 280 275 327 12 31 346 54 37 326 145 150 186 173 189 203 161 172 196 210 219 236 243 237 241 241 229 218 152 142 158
292 299 306 309 314 312 311 310 312 312 312 312 308 306 307 306 306 313 316 314 317 321 323 317 323 320 300 310 340 296 308 306 272 38 53 345 356 353 346 330 336 324 338 316 314 312 307 319 305 307 281 291 102 54 229 75 342 194 354 304 64 2 51 32 31 62 9 80 149 168 181 203 187 175 144 205 220 205 227 227 220 232 235 229 223 173 175 174
295 302 305 307 307 306 305 306 304 306 306 306 308 306 301 304 311 315 313 311 314 319 321 327 330 329 307 288 257 288 265 287 48 346 15 4 356 349 338 328 334 330 319 261 282 296 299 282 278 286 316 276 105 230 287 44 286 15 267 11 16 18 232 44 39 26 14 348 156 164 176 207 211 216 157 202 242 239 231 218 221 220 227 231 224 211 180 191
294 297 297 298 300 302 299 300 302 303 303 308 307 302 308 313 311 308 306 310 308 309 327 334 355 324 318 315 334 284 300 267 44 350 360 359 354 333 322 312 317 329 313 304 304 277 263 277 287 287 271 283 92 258 61 357 64 338 30 355 345 349 51 44 66 23 355 337 192 150 179 213 193 199 245 215 221 231 222 228 214 230 231 220 218 215 201 191
285 287 292 295 295 296 299 298 300 300 307 309 307 306 307 304 301 302 305 305 303 307 315 329 338 340 289 14 278 275 278 38 343 3 350 344 341 324 306 303 294 300 312 308 295 292 272 265 254 241 244 313 16 343 20 354 68 318 149 45 7 353 25 9 63 15 323 335 260 127 221 217 220 236 219 245 239 240 264 105 136 111 272 263 254 235 222 192
284 285 287 289 294 295 296 296 296 302 307 305 301 298 295 297 300 297 299 302 302 302 293 293 289 267 298 342 213 269 15 92 8 342 350 340 331 329 300 291 273 276 279 285 287 278 268 286 273 315 324 231 53 356 12 356 282 352 69 356 53 359 57 24 47 7 350 302 327 359 16 249 213 254 241 241 240 248 260 273 281 295 272 309 312 272 247 246
282 283 283 287 290 292 290 292 297 303 299 298 294 293 298 297 290 289 293 299 300 290 274 254 239 239 1 298 307 181 54 11 339 342 331 346 336 334 320 258 259 266 278 294 307 307 344 287 319 32 279 16 23 344 3 314 33 39 107 17 71 41 76 53 48 8 335 309 359 330 270 245 250 254 268 252 250 237 236 238 254 257 253 244 248 257 256 244
281 283 286 289 291 289 290 295 299 298 300 296 294 291 290 287 290 296 304 308 313 305 285 250 239 223 259 314 261 290 39 341 335 331 344 338 346 327 305 329 189 269 275 255 273 281 294 24 311 32 356 144 321 67 11 3 86 5 49 78 110 63 43 23 156 210 218 268 304 315 263 263 261 273 262 259 254 254 250 243 236 237 242 237 226 232 237 240
289 291 292 295 294 294 295 295 296 297 297 295 290 286 285 295 300 314 316 316 323 328 321 270 107 151 219 240 256 285 47 308 347 335 343 328 359 350 15 349 326 301 294 7 347 351 342 21 25 53 91 79 34 38 299 23 64 285 65 25 31 69 28 201 271 170 217 281 134 257 278 273 267 237 277 239 236 237 238 242 238 237 240 234 230 222 226 232
293 295 301 302 301 300 295 293 293 293 292 291 288 289 294 302 297 296 294 308 304 315 345 63 127 151 271 220 280 85 335 319 350 335 343 318 16 10 7 356 341 320 309 80 29 2 358 27 358 11 300 71 132 33 35 169 227 142 146 145 171 209 227 166 243 185 211 248 206 258 278 274 263 251 246 264 225 247 218 225 229 229 233 236 234 229 218 223
297 303 307 307 300 292 293 293 292 290 285 288 295 299 297 288 290 304 312 293 278 296 330 348 138 275 303 52 56 49 341 347 321 333 357 325 36 18 11 11 12 2 353 71 46 12 1 356 329 41 59 284 54 183 86 257 269 182 249 283 184 217 227 197 213 204 185 247 116 316 277 259 232 220 240 246 248 238 224 233 236 235 234 237 238 240 236 228
307 312 302 303 302 301 295 292 289 290 295 298 294 288 306 327 315 313 327 327 337 335 318 321 251 231 293 53 25 10 338 317 317 332 354 345 325 52 49 26 33 33 27 63 46 3 288 284 276 85 345 23 63 132 141 248 196 258 237 264 293 223 247 195 205 159 170 197 123 316 319 255 215 218 242 247 227 219 238 235 229 235 239 238 235 231 235 234
320 324 314 309 304 296 293 291 293 295 292 293 314 333 324 321 330 326 317 295 305 304 323 342 333 297 44 64 75 42 286 303 302 7 353 343 352 52 41 45 38 47 58 65 47 17 37 65 86 110 25 41 171 88 145 200 136 262 114 26 255 335 310 147 180 157 220 124 150 108 235 288 287 291 256 228 210 210 221 231 230 230 234 235 233 234 234 232
333 326 316 306 299 298 298 299 307 315 328 329 323 326 342 326 333 323 319 302 285 301 319 319 237 274 58 110 130 180 290 270 321 15 15 345 350 344 4 344 17 41 36 45 100 222 174 235 208 53 73 87 87 153 192 200 208 237 358 280 215 171 253 185 176 168 202 159 184 123 263 256 270 276 37 156 207 208 225 228 232 231 233 232 229 225 225 230
328 326 314 314 312 311 314 324 328 327 318 311 325 318 304 295 295 304 282 243 290 334 278 280 273 325 118 73 44 262 269 5 358 344 5 323 339 331 327 302 274 217 234 115 272 225 29 53 57 124 118 253 228 263 280 269 252 295 186 295 300 296 287 322 185 197 237 41 179 178 251 303 286 259 251 183 210 225 226 229 233 237 240 240 236 232 235 238
324 322 326 327 323 326 328 331 327 314 304 319 119 254 256 257 262 273 273 284 262 248 302 9 321 311 37 197 245 343 12 350 3 333 327 284 320 320 317 318 284 266 208 224 199 248 176 218 319 309 248 272 76 278 350 272 343 127 111 289 302 311 337 314 128 305 192 157 238 217 244 252 261 277 274 264 240 233 236 237 236 237 236 235 235 232 233 231
338 337 335 335 336 333 332 328 320 305 339 123 221 168 279 277 289 302 280 244 184 38 353 296 63 37 120 44 11 357 331 351 330 314 287 359 245 279 306 305 314 298 281 264 198 241 131 240 162 275 180 63 30 13 31 320 333 309 339 342 327 338 301 277 294 169 184 195 245 257 250 269 266 267 265 255 246 250 252 242 235 236 239 235 227 229 229 226
343 347 346 346 339 336 333 325 306 305 359 354 299 280 276 280 277 82 32 345 283 206 106 354 353 45 6 352 277 301 335 291 293 263 345 356 336 284 261 260 261 283 279 260 124 291 16 279 202 300 30 3 20 38 56 319 329 307 314 288 290 295 301 303 290 161 277 261 252 241 254 276 282 278 274 269 261 259 255 249 246 234 233 238 238 236 230 224
348 347 351 347 341 330 331 322 303 296 336 320 324 284 265 234 194 23 18 38 60 65 117 308 299 183 140 20 354 316 278 252 308 59 355 4 315 320 291 247 291 257 1 353 324 61 253 18 44 39 332 353 19 22 336 330 308 296 300 296 279 279 282 277 289 149 119 277 250 263 265 271 283 286 285 285 279 252 255 261 261 266 239 228 235 243 236 226
334 344 343 339 334 330 321 315 309 288 353 294 308 293 319 13 10 84 39 67 142 40 4 24 29 73 50 303 1 357 358 178 230 38 19 307 260 307 10 303 217 211 52 207 253 14 70 343 38 48 12 360 344 326 328 287 278 294 300 286 282 269 279 293 323 179 107 119 280 286 284 277 283 290 287 289 283 270 263 261 269 267 264 236 228 245 242 234
333 332 333 319 318 320 319 311 310 300 284 316 284 294 55 346 316 46 287 103 29 332 230 277 260 89 193 1 21 48 223 281 202 20 1 353 42 330 334 321 13 19 285 308 226 288 68 46 123 28 352 291 260 274 236 265 281 275 246 269 293 279 287 313 93 187 111 62 273 286 288 290 293 285 288 283 266 258 266 265 266 276 295 280 248 257 254 223
330 326 318 313 308 316 324 318 304 319 303 254 141 89 88 103 248 177 266 126 83 279 20 14 40 16 19 133 43 287 305 46 307 10 358 339 336 69 298 2 345 313 46 19 5 334 27 225 86 292 344 301 261 203 264 276 246 249 287 263 256 326 22 302 287 100 251 179 288 299 304 288 281 284 274 265 250 256 26 39 358 356 336 331 345 334 352 339
327 321 317 313 317 323 335 321 290 290 240 334 41 45 36 5 330 267 275 291 130 313 31 6 15 31 35 3 4 345 24 9 341 337 358 351 13 294 323 46 325 352 19 13 347 321 300 59 29 354 281 307 330 315 283 324 317 283 244 253 306 356 320 274 302 313 292 263 261 297 291 280 249 298 328 15 44 64 8 329 313 302 280 3 326 321 326 6
329 318 311 312 316 316 286 313 275 222 355 7 71 65 31 358 333 346 7 299 174 119 319 235 261 97 346 234 259 281 47 164 28 358 340 9 341 330 75 263 273 52 350 0 306 284 131 101 33 257 242 229 339 321 347 27 316 308 89 93 330 301 305 295 299 329 331 318 153 6 348 293 33 347 306 55 7 43 195 35 309 358 91 61 344 319 327 348
315 312 308 311 316 289 299 329 156 95 327 33 36 26 9 337 4 309 14 228 95 328 178 33 201 7 200 9 347 81 269 35 267 343 318 31 247 126 276 163 83 331 321 342 1 139 282 107 245 309 332 318 279 266 227 108 297 338 253 243 263 277 277 289 306 4 309 308 291 109 228 288 333 319 321 2 37 36 33 10 358 30 54 57 39 37 32 27
310 296 295 299 304 311 222 181 348 97 346 164 12 337 354 309 350 324 348 265 63 319 22 183 251 68 233 357 316 170 28 338 307 320 322 48 22 182 5 15 260 146 174 330 33 334 187 179 215 215 293 291 293 274 53 356 11 281 189 294 320 306 294 288 307 231 258 298 289 249 194 250 316 312 359 349 65 47 35 2 6 24 47 49 47 43 34 21
297 253 253 248 273 190 13 284 275 188 330 0 313 318 314 327 288 263 103 116 19 284 360 343 39 310 333 317 335 52 170 258 346 301 191 153 166 246 253 337 350 270 333 16 15 288 37 276 172 297 304 273 298 59 6 1 183 281 4 340 303 275 275 305 292 281 271 325 305 358 146 234 246 264 310 6 42 23 24 14 13 22 51 56 55 43 28 13
188 150 179 198 176 233 295 314 346 352 6 326 331 306 312 298 320 344 231 85 256 20 207 15 243 338 347 302 40 65 211 357 1 293 27 69 227 1 304 74 314 345 338 257 279 307 326 43 26 341 88 323 44 322 146 194 298 357 314 276 262 268 260 222 233 271 283 298 290 11 135 284 291 309 330 9 31 8 1 22 17 10 37 64 52 28 12 0
136 150 178 172 172 345 184 85 55 323 307 317 313 309 277 303 264 17 319 58 325 346 29 289 11 302 315 331 142 19 0 21 65 301 286 321 62 236 123 27 291 334 326 352 304 59 143 52 17 174 340 11 311 290 208 232 253 328 305 283 290 269 206 144 210 223 336 334 313 17 352 52 290 297 343 15 340 289 22 14 22 25 20 10 13 8 357 341
87 80 144 253 23 61 359 191 60 338 302 286 300 282 280 263 61 314 66 271 9 342 288 31 341 311 359 36 346 348 339 355 351 353 2 21 11 22 4 28 307 285 129 277 290 127 91 160 71 20 342 279 235 306 86 75 192 341 316 307 320 320 82 106 308 151 40 301 2 324 7 322 300 306 328 331 9 59 62 44 23 18 21 7 346 341 334 326
83 72 62 72 132 288 11 169 333 313 290 301 293 288 240 4 48 51 158 77 61 333 28 306 298 351 334 329 220 346 340 315 35 25 12 11 30 30 12 47 344 3 1 10 325 7 331 80 101 106 234 54 317 302 91 4 154 287 315 338 3 328 350 351 20 346 335 323 279 239 351 330 225 253 290 328 56 56 88 117 116 265 1 340 338 335 325 323
99 95 71 48 125 64 82 247 259 273 301 282 306 259 11 9 58 314 318 339 103 274 325 147 279 327 306 292 18 335 145 18 315 36 141 277 115 59 16 54 335 96 319 332 314 4 288 303 336 141 39 14 315 4 333 1 342 356 7 343 7 353 7 330 324 293 281 296 238 253 340 241 252 279 288 90 104 130 159 143 168 174 256 344 343 330 328 340
119 92 77 73 74 80 125 242 280 289 288 249 326 307 41 59 73 154 228 11 304 76 265 309 320 286 310 45 311 0 356 223 3 331 330 357 50 41 28 44 30 349 336 308 20 343 351 356 7 11 335 288 11 53 110 239 307 284 306 47 337 345 44 321 333 334 314 297 309 289 31 244 327 269 2 169 128 189 173 161 130 13 18 354 328 340 2 360
99 91 121 147 104 84 97 3 309 307 293 328 289 17 73 78 78 350 357 335 9 324 326 40 318 299 312 85 1 65 89 319 39 341 25 35 0 42 358 355 4 25 296 348 56 269 54 245 273 83 358 127 28 216 206 309 298 230 270 129 9 117 148 220 258 293 292 304 312 322 215 259 255 312 304 165 44 50 134 31 25 4 13 350 3 4 354 341
319 124 115 53 34 40 69 40 332 314 318 293 61 53 57 350 23 14 349 219 287 359 314 317 269 349 358 131 256 17 263 113 311 28 58 54 25 55 46 18 12 0 19 31 312 349 354 256 335 339 56 19 95 209 328 33 48 300 3 43 271 161 128 232 294 246 271 271 244 233 313 300 314 319 360 348 3 356 8 11 22 360 354 3 4 4 342 332
92 165 48 6 43 7 46 57 332 319 281 351 77 68 47 67 48 295 23 2 6 319 282 22 352 34 353 325 8 349 313 66 306 11 10 173 50 12 26 72 312 17 36 85 327 99 29 288 295 323 1 6 319 51 7 330 39 336 2 291 293 152 144 122 274 305 281 292 290 333 297 295 360 309 356 349 348 339 336 345 342 15 12 17 358 347 338 333
89 74 123 68 338 343 60 114 273 234 22 78 59 94 311 45 35 359 24 328 345 201 320 29 243 118 349 350 342 344 323 63 331 2 21 21 50 270 357 30 32 43 6 26 109 315 39 315 300 79 277 135 344 71 355 276 234 196 233 293 39 342 347 289 290 313 339 297 298 297 299 290 268 252 348 336 333 327 342 335 356 16 24 0 347 338 334 330
109 192 41 346 360 328 201 198 225 298 131 65 99 102 30 88 359 46 350 312 214 230 20 12 33 350 158 21 291 238 14 26 325 4 9 359 39 10 93 270 347 64 9 25 347 323 332 193 298 353 18 307 147 131 4 309 215 313 359 318 300 117 220 298 257 267 194 269 315 295 313 285 284 257 321 319 318 323 348 341 5 21 8 350 340 341 332 329
172 92 33 336 340 2 297 283 34 45 56 71 54 67 306 73 73 22 93 328 12 352 46 339 8 338 6 118 98 358 331 294 349 300 34 324 39 25 49 17 16 322 1 337 294 344 307 316 278 296 336 335 342 38 320 282 327 324 335 198 34 240 215 233 269 181 205 254 271 302 300 278 277 290 321 305 303 343 348 344 2 2 350 346 343 334 326 325
215 89 14 9 350 318 297 26 43 27 69 90 55 86 29 56 334 109 118 93 270 133 109 77 348 37 311 334 356 352 333 317 328 346 20 11 49 331 68 36 338 329 322 177 126 353 306 329 274 310 329 350 271 190 232 274 188 224 183 245 241 31 350 6 302 77 53 58 279 299 270 282 278 314 286 287 316 344 339 346 354 349 342 343 338 332 331 333
28 70 334 338 345 344 12 53 19 3 58 36 52 345 76 231 330 58 265 148 104 299 111 95 69 8 2 343 226 329 355 316 332 0 59 48 9 50 337 340 339 300 354 343 33 19 93 275 259 290 267 274 287 220 273 281 236 243 342 262 84 81 146 220 292 292 332 246 181 206 268 270 277 219 263 302 339 327 328 350 348 338 334 330 328 329 325 329
27 92 230 306 321 63 59 76 43 40 60 92 206 78 240 97 28 227 43 349 355 258 272 51 331 347 85 46 335 324 40 298 32 328 16 14 90 134 333 333 346 262 190 337 51 49 44 236 287 275 266 257 309 278 267 254 338 326 261 198 37 194 175 183 212 247 285 286 323 252 224 269 300 322 323 327 316 318 321 325 339 330 327 322 325 328 323 321
95 63 14 336 119 133 75 102 88 78 114 199 125 117 336 52 26 13 17 31 34 356 15 350 216 64 283 55 290 311 336 10 99 39 357 326 4 255 341 343 2 16 9 109 111 327 21 322 45 296 329 317 309 333 312 214 87 239 304 297 138 85 60 62 36 53 296 230 207 237 267 281 291 327 313 313 319 315 313 314 347 325 319 315 314 316 313 305
121 85 69 14 21 43 84 311 116 124 133 118 119 50 68 68 26 24 320 12 322 50 348 33 204 311 307 72 287 302 334 101 294 116 179 297 321 254 189 5 321 9 62 352 273 321 185 262 342 344 330 325 331 333 329 328 327 315 293 113 74 169 154 48 273 210 227 261 189 218 257 263 285 302 299 305 309 307 309 306 316 307 305 306 317 324 321 312
6 84 316 21 11 39 57 15 63 103 115 137 62 339 17 65 239 198 271 73 55 261 187 266 173 127 304 328 339 342 355 111 156 302 11 335 11 215 79 256 52 33 50 309 287 291 278 299 244 230 221 238 256 269 282 312 309 293 289 295 281 185 202 181 199 232 223 263 289 255 249 276 287 290 302 306 309 305 306 315 322 321 317 316 317 323 323 308
84 84 347 71 7 53 90 33 29 15 97 273 84 347 34 37 162 157 222 11 55 43 289 38 6 18 346 9 17 309 14 338 85 59 340 297 299 266 180 156 179 192 198 356 186 120 267 281 234 222 240 246 253 270 283 295 276 277 284 283 287 201 188 172 186 227 202 6 279 267 254 262 281 293 297 302 301 299 299 313 316 316 320 319 324 326 320 312
71 232 92 239 107 343 17 8 5 63 41 71 112 185 30 31 30 33 336 129 162 145 66 234 52 59 18 38 290 321 345 319 24 326 320 186 309 276 243 227 249 168 173 177 178 91 54 279 284 100 254 262 267 273 276 281 265 262 267 272 279 272 163 201 224 238 236 203 246 270 288 292 284 287 293 294 294 298 316 316 316 315 316 323 331 323 315 311
85 117 112 276 82 313 73 217 321 68 64 55 95 52 42 55 73 36 154 315 169 12 32 32 5 6 356 345 2 342 348 6 334 305 84 299 350 320 340 308 219 173 215 184 165 177 64 235 279 199 271 278 270 257 259 256 270 278 269 265 266 272 254 220 239 243 219 233 247 264 277 276 278 281 286 286 291 306 311 316 318 325 328 334 328 318 314 319
156 137 82 17 82 109 73 325 337 41 60 354 92 328 38 25 67 47 132 28 24 17 354 52 336 338 328 4 329 56 159 170 206 272 246 63 308 204 264 179 289 215 195 172 97 245 117 278 35 318 306 293 288 263 249 254 268 282 287 289 278 267 267 256 248 249 238 254 260 262 267 272 274 278 275 274 295 326 325 322 324 329 343 333 319 317 340 3
101 61 130 122 82 345 317 8 34 49 66 2 67 295 133 22 91 5 68 12 61 2 13 356 322 317 280 236 202 154 166 197 221 230 251 222 233 201 159 288 114 310 324 290 142 304 114 266 356 315 320 300 306 338 320 311 300 283 280 284 286 289 289 278 258 235 195 241 260 277 282 279 282 288 290 305 333 332 322 325 332 348 339 332 350 1 359 353
83 101 134 107 86 321 44 303 310 65 30 337 52 36 66 96 104 337 102 50 56 53 33 304 288 255 268 238 288 259 247 235 246 268 301 289 303 309 296 290 359 5 327 295 127 181 181 342 344 336 317 282 292 332 321 315 307 310 299 262 267 262 248 266 274 268 237 228 270 282 275 287 297 303 311 333 336 328 329 332 352 345 350 8 359 352 354 349